Location: Chervonnoye
(48.6000°N, 34.4000°E)
Time: 07:34:55
(UTC+00:00)

KAITUO 1B - Pass Details

Date: 06 December 2021
Orbit: 486 x 507 km, 97.4° (Epoch: 18 January)

Event Time Altitude Azimuth Distance (km) Brightness Sun altitude
Rises 16:21:12 0° 206° (SSW) 2,600 ? -24.4°
Reaches altitude 10° 16:23:53 10° 228° (SW) 1,725 ? -24.9°
Maximum altitude 16:26:20 17° 269° (W) 1,365 ? -25.3°
Drops below altitude 10° 16:28:48 10° 310° (NW) 1,740 ? -25.7°
Sets 16:31:32 0° 332° (NNW) 2,634 ? -26.1°
